User: anonymous   Login
Location: Unspecified
(0.0000°N, 0.0000°E)
Time: 12:21:14
(UTC+00:00)
Language:

PERSEUS M1 - Orbit

View from above orbital plane
View from above orbital plane
View from above satellite
View from above satellite

Ground track
Ground track

The orbit data is extracted from the following two-line orbital elements,

1 40039U 14033AF  18347.82628812 +.00000078 +00000-0 +15259-4 0  9998
2 40039 097.8942 257.4591 0013417 322.8539 037.1746 14.86030431242644
Epoch (UTC): 13 December 2018 19:49:51
Eccentricity: 0.0013417
inclination: 97.8942°
perigee height: 601 km
apogee height: 620 km
right ascension of ascending node: 257.4591°
argument of perigee: 322.8539°
revolutions per day: 14.86030431
mean anomaly at epoch: 37.1746°
orbit number at epoch: 24264

The dashed part of the orbit path shows where the satellite is in the earth's shadow,  

DLR